This is the latest recevied weather packets stored in our database for station/object VE9LJW. If no packets are shown the sender has not sent any weather packets the latest 10 day(s).
| Time | Temp. | Humidity | Pressure | Rain* | Wind** | Luminosity | Snow |
|---|---|---|---|---|---|---|---|
| 1777581033 | 15° C | 71% | 1008.4 hPa | 0 mm | - | 34 W/m² | - |
| 1777580732 | 15° C | 71% | 1008.3 hPa | 0 mm | - | 39 W/m² | - |
| 1777580430 | 15° C | 70% | 1008.4 hPa | 0 mm | - | 35 W/m² | - |
| 1777580125 | 15.56° C | 70% | 1008.5 hPa | 0 mm | - | 42 W/m² | - |
| 1777579822 | 15.56° C | 69% | 1008.6 hPa | 0 mm | - | 43 W/m² | - |
| 1777579521 | 15.56° C | 69% | 1008.7 hPa | 0 mm | - | 42 W/m² | - |
| 1777579221 | 15.56° C | 69% | 1008.7 hPa | 0 mm | - | 48 W/m² | - |
| 1777578916 | 15.56° C | 69% | 1008.9 hPa | 0 mm | - | 71 W/m² | - |
| 1777578612 | 15.56° C | 69% | 1008.7 hPa | 0 mm | - | 89 W/m² | - |
| 1777578307 | 15.56° C | 68% | 1008.6 hPa | 0 mm | - | 110 W/m² | - |
| 1777578002 | 16.11° C | 67% | 1008.9 hPa | 0 mm | - | 93 W/m² | - |
| 1777577697 | 16.11° C | 66% | 1008.6 hPa | 0 mm | - | 114 W/m² | - |
| 1777577395 | 16.11° C | 66% | 1008.7 hPa | 0 mm | - | 147 W/m² | - |
| 1777577091 | 16.11° C | 65% | 1008.6 hPa | 0 mm | - | 168 W/m² | - |
| 1777576788 | 16.11° C | 65% | 1008.7 hPa | 0 mm | - | 229 W/m² | - |
| 1777576487 | 16.11° C | 65% | 1008.7 hPa | 0 mm | - | 263 W/m² | - |
| 1777576183 | 16.11° C | 65% | 1008.9 hPa | 0 mm | - | 314 W/m² | - |
| 1777575878 | 16.11° C | 65% | 1009.1 hPa | 0 mm | - | 252 W/m² | - |
| 1777575576 | 16.11° C | 65% | 1009 hPa | 0 mm | - | 225 W/m² | - |
| 1777575272 | 16.11° C | 64% | 1009.1 hPa | 0 mm | - | 232 W/m² | - |
| 1777574968 | 16.11° C | 63% | 1009.3 hPa | 0 mm | - | 248 W/m² | - |
| 1777574664 | 16.11° C | 63% | 1009.3 hPa | 0 mm | - | 280 W/m² | - |
| 1777574356 | 16.11° C | 63% | 1009.1 hPa | 0 mm | - | 302 W/m² | - |
| 1777574056 | 16.67° C | 63% | 1009.1 hPa | 0 mm | - | 297 W/m² | - |
| 1777573751 | 16.11° C | 63% | 1009 hPa | 0 mm | - | 313 W/m² | - |
* Rain latest hour (hover to see other rain measurements)
** Current wind speed in m/s (hover to see current wind gust speed)